Time,TemperatureF,DewpointF,PressureIn,WindDirection,WindDirectionDegrees,WindSpeedMPH,WindSpeedGustMPH,Humidity,HourlyPrecipIn,Conditions,Clouds,dailyrainin,SoftwareType,DateUTC
2013-08-03 00:00:00,62.5,58.3,29.92,NW,318,0.0,2.0,86,0.00,,,0.05,Wunderground v.1.15,2013-08-03 04:00:00,
2013-08-03 00:05:00,62.3,58.1,29.92,NW,318,0.0,2.0,86,0.00,,,0.05,Wunderground v.1.15,2013-08-03 04:05:00,
2013-08-03 00:10:00,62.2,58.0,29.92,NNW,346,0.0,2.0,86,0.00,,,0.05,Wunderground v.1.15,2013-08-03 04:10:00,
2013-08-03 00:15:00,62.0,57.8,29.92,North,360,0.0,2.0,86,0.00,,,0.00,Wunderground v.1.15,2013-08-03 04:15:00,
2013-08-03 00:20:00,61.9,57.3,29.92,North,360,0.0,2.0,85,0.00,,,0.00,Wunderground v.1.15,2013-08-03 04:20:00,
2013-08-03 00:25:00,61.8,57.2,29.92,North,360,0.0,2.0,85,0.00,,,0.00,Wunderground v.1.15,2013-08-03 04:25:00,
2013-08-03 00:30:00,61.8,56.9,29.92,North,355,0.0,2.0,84,0.00,,,0.00,Wunderground v.1.15,2013-08-03 04:30:00,
2013-08-03 00:35:00,61.8,56.9,29.93,North,355,0.0,2.0,84,0.00,,,0.00,Wunderground v.1.15,2013-08-03 04:35:00,
2013-08-03 00:45:00,61.6,56.7,29.93,NNE,33,0.0,2.0,84,0.00,,,0.00,Wunderground v.1.15,2013-08-03 04:45:00,
2013-08-03 00:50:00,61.6,57.0,29.92,North,5,0.0,2.0,85,0.00,,,0.00,Wunderground v.1.15,2013-08-03 04:50:00,
2013-08-03 00:55:00,61.4,56.8,29.92,North,360,0.0,2.0,85,0.00,,,0.00,Wunderground v.1.15,2013-08-03 04:55:00,
2013-08-03 01:00:00,61.1,56.6,29.92,NNW,346,0.0,2.0,85,0.00,,,0.00,Wunderground v.1.15,2013-08-03 05:00:00,
2013-08-03 01:05:00,60.9,56.4,29.93,NNW,337,0.0,2.0,85,0.00,,,0.00,Wunderground v.1.15,2013-08-03 05:05:00,
2013-08-03 01:15:00,60.4,56.2,29.93,NNW,337,0.0,2.0,86,0.00,,,0.00,Wunderground v.1.15,2013-08-03 05:15:00,
2013-08-03 01:20:00,60.2,56.0,29.93,NNW,338,0.0,2.0,86,0.00,,,0.00,Wunderground v.1.15,2013-08-03 05:20:00,
2013-08-03 01:30:00,59.9,55.7,29.93,NNW,337,0.0,2.0,86,0.00,,,0.00,Wunderground v.1.15,2013-08-03 05:30:00,
2013-08-03 01:35:00,59.8,55.6,29.93,NNW,337,0.0,2.0,86,0.00,,,0.00,Wunderground v.1.15,2013-08-03 05:35:00,
2013-08-03 01:40:00,59.8,55.6,29.93,NNW,338,0.0,2.0,86,0.00,,,0.00,Wunderground v.1.15,2013-08-03 05:40:00,
2013-08-03 01:50:00,59.5,55.6,29.93,NNW,338,0.0,2.0,87,0.00,,,0.00,Wunderground v.1.15,2013-08-03 05:50:00,
2013-08-03 01:55:00,59.3,55.4,29.93,NNW,338,0.0,2.0,87,0.00,,,0.00,Wunderground v.1.15,2013-08-03 05:55:00,
2013-08-03 02:00:00,59.0,55.1,29.93,NNW,338,0.0,2.0,87,0.00,,,0.00,Wunderground v.1.15,2013-08-03 06:00:00,
2013-08-03 02:05:00,59.0,55.4,29.93,NNW,337,0.0,2.0,88,0.00,,,0.00,Wunderground v.1.15,2013-08-03 06:05:00,
2013-08-03 02:10:00,58.8,55.3,29.93,NNW,337,0.0,2.0,88,0.00,,,0.00,Wunderground v.1.15,2013-08-03 06:10:00,
2013-08-03 02:20:00,58.1,54.9,29.93,NNW,338,0.0,2.0,89,0.00,,,0.00,Wunderground v.1.15,2013-08-03 06:20:00,
2013-08-03 02:25:00,57.9,55.0,29.93,NNW,338,0.0,2.0,90,0.00,,,0.00,Wunderground v.1.15,2013-08-03 06:25:00,
2013-08-03 02:30:00,57.7,54.8,29.93,NNW,337,0.0,2.0,90,0.00,,,0.00,Wunderground v.1.15,2013-08-03 06:30:00,
2013-08-03 02:35:00,57.5,54.9,29.94,NNW,338,0.0,2.0,91,0.00,,,0.00,Wunderground v.1.15,2013-08-03 06:35:00,
2013-08-03 02:40:00,57.3,54.7,29.94,NNW,337,0.0,2.0,91,0.00,,,0.00,Wunderground v.1.15,2013-08-03 06:40:00,
2013-08-03 02:45:00,57.1,54.5,29.94,NNW,337,0.0,2.0,91,0.00,,,0.00,Wunderground v.1.15,2013-08-03 06:45:00,
2013-08-03 02:55:00,56.6,54.3,29.94,NNW,338,0.0,2.0,92,0.00,,,0.00,Wunderground v.1.15,2013-08-03 06:55:00,
2013-08-03 03:00:00,56.4,54.1,29.94,NNW,338,0.0,2.0,92,0.00,,,0.00,Wunderground v.1.15,2013-08-03 07:00:00,
2013-08-03 03:05:00,56.2,53.9,29.94,NNW,338,0.0,2.0,92,0.00,,,0.00,Wunderground v.1.15,2013-08-03 07:05:00,
2013-08-03 03:15:00,55.8,53.8,29.94,NNW,338,0.0,2.0,93,0.00,,,0.00,Wunderground v.1.15,2013-08-03 07:15:00,
2013-08-03 03:25:00,55.5,53.5,29.94,NNW,338,0.0,2.0,93,0.00,,,0.00,Wunderground v.1.15,2013-08-03 07:25:00,
2013-08-03 03:30:00,55.4,53.7,29.94,NNW,338,0.0,2.0,94,0.00,,,0.00,Wunderground v.1.15,2013-08-03 07:30:00,
2013-08-03 03:35:00,55.3,53.6,29.94,NNW,338,0.0,2.0,94,0.00,,,0.00,Wunderground v.1.15,2013-08-03 07:35:00,
2013-08-03 03:40:00,55.3,53.6,29.94,NNW,338,0.0,2.0,94,0.00,,,0.00,Wunderground v.1.15,2013-08-03 07:40:00,
2013-08-03 03:45:00,55.2,53.5,29.94,NNW,337,0.0,2.0,94,0.00,,,0.00,Wunderground v.1.15,2013-08-03 07:45:00,
2013-08-03 03:50:00,55.1,53.4,29.94,NNW,338,0.0,2.0,94,0.00,,,0.00,Wunderground v.1.15,2013-08-03 07:50:00,
2013-08-03 04:00:00,55.0,53.3,29.95,North,355,0.0,2.0,94,0.00,,,0.00,Wunderground v.1.15,2013-08-03 08:00:00,
2013-08-03 04:05:00,55.0,53.3,29.95,North,355,0.0,2.0,94,0.00,,,0.00,Wunderground v.1.15,2013-08-03 08:05:00,
2013-08-03 04:10:00,54.9,53.5,29.95,North,355,0.0,2.0,95,0.00,,,0.00,Wunderground v.1.15,2013-08-03 08:10:00,
2013-08-03 04:15:00,54.9,53.2,29.95,North,355,0.0,2.0,94,0.00,,,0.00,Wunderground v.1.15,2013-08-03 08:15:00,
2013-08-03 04:20:00,54.8,53.1,29.95,North,355,0.0,2.0,94,0.00,,,0.00,Wunderground v.1.15,2013-08-03 08:20:00,
2013-08-03 04:30:00,54.6,52.9,29.95,North,355,0.0,2.0,94,0.00,,,0.00,Wunderground v.1.15,2013-08-03 08:30:00,
2013-08-03 04:35:00,54.5,53.1,29.95,North,355,0.0,2.0,95,0.00,,,0.00,Wunderground v.1.15,2013-08-03 08:35:00,
2013-08-03 04:40:00,54.4,53.0,29.95,NE,40,0.0,2.0,95,0.00,,,0.00,Wunderground v.1.15,2013-08-03 08:40:00,
2013-08-03 04:45:00,54.3,52.9,29.95,NE,40,0.0,2.0,95,0.00,,,0.00,Wunderground v.1.15,2013-08-03 08:45:00,
2013-08-03 04:50:00,54.4,53.0,29.95,NE,40,0.0,2.0,95,0.00,,,0.00,Wunderground v.1.15,2013-08-03 08:50:00,
2013-08-03 04:55:00,54.4,53.0,29.95,NE,40,0.0,2.0,95,0.00,,,0.00,Wunderground v.1.15,2013-08-03 08:55:00,
2013-08-03 05:05:00,56.2,55.4,29.95,West,264,0.0,1.0,97,0.00,,,0.00,Wunderground v.1.15,2013-08-03 09:05:00,
2013-08-03 05:15:00,60.8,59.7,29.95,SW,236,1.0,2.0,96,0.00,,,0.00,Wunderground v.1.15,2013-08-03 09:15:00,
2013-08-03 05:20:00,62.1,59.7,29.95,WSW,238,1.0,2.0,92,0.00,,,0.00,Wunderground v.1.15,2013-08-03 09:20:00,
2013-08-03 05:25:00,62.9,59.9,29.95,WSW,243,1.0,4.0,90,0.00,,,0.00,Wunderground v.1.15,2013-08-03 09:25:00,
2013-08-03 05:30:00,63.7,59.8,29.95,WSW,242,3.0,7.0,87,0.00,,,0.00,Wunderground v.1.15,2013-08-03 09:30:00,
2013-08-03 05:35:00,64.5,59.9,29.95,WSW,244,5.0,7.0,85,0.00,,,0.00,Wunderground v.1.15,2013-08-03 09:35:00,
2013-08-03 05:40:00,64.8,60.2,29.95,WSW,254,6.0,6.0,85,0.00,,,0.00,Wunderground v.1.15,2013-08-03 09:40:00,
2013-08-03 05:45:00,64.9,60.3,29.95,West,271,5.0,6.0,85,0.00,,,0.00,Wunderground v.1.15,2013-08-03 09:45:00,
2013-08-03 05:55:00,64.5,59.2,29.96,West,260,4.0,5.0,83,0.00,,,0.00,Wunderground v.1.15,2013-08-03 09:55:00,
2013-08-03 06:00:00,64.4,59.5,29.96,WNW,282,3.0,5.0,84,0.00,,,0.00,Wunderground v.1.15,2013-08-03 10:00:00,
2013-08-03 06:05:00,64.3,59.0,29.96,WNW,294,4.0,5.0,83,0.00,,,0.00,Wunderground v.1.15,2013-08-03 10:05:00,
2013-08-03 06:10:00,63.9,57.6,29.96,WNW,299,4.0,4.0,80,0.00,,,0.00,Wunderground v.1.15,2013-08-03 10:10:00,
2013-08-03 06:15:00,63.4,57.1,29.97,NW,321,2.0,4.0,80,0.00,,,0.00,Wunderground v.1.15,2013-08-03 10:15:00,
2013-08-03 06:25:00,62.5,55.9,29.97,NW,315,1.0,2.0,79,0.00,,,0.00,Wunderground v.1.15,2013-08-03 10:25:00,
2013-08-03 06:30:00,62.1,55.9,29.97,NW,310,1.0,2.0,80,0.00,,,0.00,Wunderground v.1.15,2013-08-03 10:30:00,
2013-08-03 06:35:00,62.0,56.1,29.97,NNW,333,1.0,2.0,81,0.00,,,0.00,Wunderground v.1.15,2013-08-03 10:35:00,
2013-08-03 06:40:00,61.9,56.0,29.97,NNW,329,1.0,1.0,81,0.00,,,0.00,Wunderground v.1.15,2013-08-03 10:40:00,
2013-08-03 06:45:00,61.7,55.8,29.97,NNW,329,1.0,2.0,81,0.00,,,0.00,Wunderground v.1.15,2013-08-03 10:45:00,
2013-08-03 06:50:00,61.6,56.0,29.98,NNW,329,0.0,2.0,82,0.00,,,0.00,Wunderground v.1.15,2013-08-03 10:50:00,
2013-08-03 07:00:00,60.8,55.9,29.98,North,360,0.0,2.0,84,0.00,,,0.00,Wunderground v.1.15,2013-08-03 11:00:00,
2013-08-03 07:05:00,60.3,55.8,29.98,NNW,346,0.0,2.0,85,0.00,,,0.00,Wunderground v.1.15,2013-08-03 11:05:00,
2013-08-03 07:10:00,59.9,55.7,29.98,North,10,0.0,2.0,86,0.00,,,0.00,Wunderground v.1.15,2013-08-03 11:10:00,
2013-08-03 07:15:00,59.6,55.4,29.98,North,360,0.0,2.0,86,0.00,,,0.00,Wunderground v.1.15,2013-08-03 11:15:00,
2013-08-03 07:20:00,59.5,55.3,29.99,North,355,0.0,2.0,86,0.00,,,0.00,Wunderground v.1.15,2013-08-03 11:20:00,
2013-08-03 07:30:00,59.8,55.6,29.99,North,360,0.0,2.0,86,0.00,,,0.00,Wunderground v.1.15,2013-08-03 11:30:00,
2013-08-03 07:35:00,59.9,55.7,29.99,North,360,0.0,2.0,86,0.00,,,0.00,Wunderground v.1.15,2013-08-03 11:35:00,
2013-08-03 07:40:00,59.9,55.7,29.99,North,360,0.0,2.0,86,0.00,,,0.00,Wunderground v.1.15,2013-08-03 11:40:00,
2013-08-03 07:45:00,59.9,55.7,29.99,North,360,0.0,2.0,86,0.00,,,0.00,Wunderground v.1.15,2013-08-03 11:45:00,
2013-08-03 07:50:00,60.0,56.1,29.99,North,360,0.0,2.0,87,0.00,,,0.00,Wunderground v.1.15,2013-08-03 11:50:00,
2013-08-03 07:55:00,60.3,56.4,29.99,NW,314,0.0,2.0,87,0.00,,,0.00,Wunderground v.1.15,2013-08-03 11:55:00,
2013-08-03 08:01:00,61.0,55.8,29.99,NW,313,1.0,1.0,83,0.00,,,0.00,Wunderground v.1.15,2013-08-03 12:01:00,
2013-08-03 08:10:00,61.7,56.5,29.99,NW,304,1.0,1.0,83,0.00,,,0.00,Wunderground v.1.15,2013-08-03 12:10:00,
2013-08-03 08:15:00,62.0,57.1,29.99,WNW,303,1.0,2.0,84,0.00,,,0.00,Wunderground v.1.15,2013-08-03 12:15:00,
2013-08-03 08:20:00,62.3,56.7,30.00,NW,313,1.0,1.0,82,0.00,,,0.00,Wunderground v.1.15,2013-08-03 12:20:00,
2013-08-03 08:25:00,62.5,57.6,29.99,NW,315,1.0,2.0,84,0.00,,,0.00,Wunderground v.1.15,2013-08-03 12:25:00,
2013-08-03 08:30:00,62.6,58.0,29.99,WNW,286,1.0,1.0,85,0.00,,,0.00,Wunderground v.1.15,2013-08-03 12:30:00,
2013-08-03 08:40:00,62.6,57.4,29.99,WNW,292,2.0,2.0,83,0.00,,,0.00,Wunderground v.1.15,2013-08-03 12:40:00,
2013-08-03 08:45:00,62.6,57.4,30.00,WNW,298,1.0,2.0,83,0.00,,,0.00,Wunderground v.1.15,2013-08-03 12:45:00,
2013-08-03 08:50:00,62.6,57.4,30.00,West,281,1.0,2.0,83,0.00,,,0.00,Wunderground v.1.15,2013-08-03 12:50:00,
2013-08-03 08:55:00,62.7,57.1,30.00,West,261,2.0,4.0,82,0.00,,,0.00,Wunderground v.1.15,2013-08-03 12:55:00,
2013-08-03 09:00:00,62.8,56.9,30.00,WNW,290,4.0,4.0,81,0.00,,,0.00,Wunderground v.1.15,2013-08-03 13:00:00,
2013-08-03 09:05:00,62.8,57.2,30.00,West,268,4.0,4.0,82,0.00,,,0.00,Wunderground v.1.15,2013-08-03 13:05:00,
2013-08-03 09:15:00,63.2,57.9,30.00,WNW,284,3.0,5.0,83,0.00,,,0.00,Wunderground v.1.15,2013-08-03 13:15:00,
2013-08-03 09:20:00,63.2,58.3,30.00,WNW,284,4.0,6.0,84,0.00,,,0.00,Wunderground v.1.15,2013-08-03 13:20:00,
2013-08-03 09:25:00,63.1,57.9,30.00,West,267,5.0,6.0,83,0.00,,,0.00,Wunderground v.1.15,2013-08-03 13:25:00,
2013-08-03 09:30:00,62.8,57.6,30.00,West,263,5.0,5.0,83,0.00,,,0.00,Wunderground v.1.15,2013-08-03 13:30:00,
2013-08-03 09:35:00,62.6,58.0,30.00,West,273,5.0,5.0,85,0.00,,,0.00,Wunderground v.1.15,2013-08-03 13:35:00,
2013-08-03 09:45:00,62.6,57.4,30.00,WNW,296,4.0,5.0,83,0.00,,,0.00,Wunderground v.1.15,2013-08-03 13:45:00,
2013-08-03 09:50:00,62.6,57.4,30.00,WNW,287,5.0,6.0,83,0.00,,,0.00,Wunderground v.1.15,2013-08-03 13:50:00,
2013-08-03 09:55:00,62.7,57.8,30.00,West,275,5.0,6.0,84,0.00,,,0.00,Wunderground v.1.15,2013-08-03 13:55:00,
2013-08-03 10:00:00,62.7,57.5,30.00,West,265,5.0,5.0,83,0.00,,,0.00,Wunderground v.1.15,2013-08-03 14:00:00,
2013-08-03 10:05:00,62.8,57.2,30.00,West,263,5.0,5.0,82,0.00,,,0.00,Wunderground v.1.15,2013-08-03 14:05:00,
2013-08-03 10:10:00,62.9,57.3,30.01,West,276,5.0,5.0,82,0.00,,,0.00,Wunderground v.1.15,2013-08-03 14:10:00,
2013-08-03 10:20:00,63.2,57.6,30.01,West,281,4.0,5.0,82,0.00,,,0.00,Wunderground v.1.15,2013-08-03 14:20:00,
2013-08-03 10:25:00,63.3,57.7,30.01,West,268,4.0,5.0,82,0.00,,,0.00,Wunderground v.1.15,2013-08-03 14:25:00,
2013-08-03 10:30:00,63.3,56.7,30.01,WSW,258,4.0,5.0,79,0.00,,,0.00,Wunderground v.1.15,2013-08-03 14:30:00,
2013-08-03 10:40:00,63.3,57.0,30.01,West,280,5.0,5.0,80,0.00,,,0.00,Wunderground v.1.15,2013-08-03 14:40:00,
2013-08-03 10:45:00,63.5,56.9,30.01,West,269,4.0,5.0,79,0.00,,,0.00,Wunderground v.1.15,2013-08-03 14:45:00,
2013-08-03 10:50:00,63.5,55.8,30.01,WSW,254,4.0,4.0,76,0.00,,,0.00,Wunderground v.1.15,2013-08-03 14:50:00,
2013-08-03 10:55:00,63.6,56.3,30.02,WNW,283,5.0,5.0,77,0.00,,,0.00,Wunderground v.1.15,2013-08-03 14:55:00,
2013-08-03 11:00:00,63.6,55.9,30.02,WNW,282,4.0,5.0,76,0.00,,,0.00,Wunderground v.1.15,2013-08-03 15:00:00,
2013-08-03 11:05:00,63.6,55.5,30.02,West,271,4.0,6.0,75,0.00,,,0.00,Wunderground v.1.15,2013-08-03 15:05:00,
2013-08-03 11:10:00,63.7,56.0,30.02,WNW,283,4.0,4.0,76,0.00,,,0.00,Wunderground v.1.15,2013-08-03 15:10:00,
2013-08-03 11:15:00,63.8,56.4,30.02,WNW,288,4.0,4.0,77,0.00,,,0.00,Wunderground v.1.15,2013-08-03 15:15:00,
2013-08-03 11:21:00,63.8,55.7,30.02,WNW,290,4.0,6.0,75,0.00,,,0.00,Wunderground v.1.15,2013-08-03 15:21:00,
2013-08-03 11:30:00,63.8,56.1,30.03,WNW,284,4.0,6.0,76,0.00,,,0.00,Wunderground v.1.15,2013-08-03 15:30:00,
2013-08-03 11:35:00,63.9,55.8,30.03,WNW,284,4.0,6.0,75,0.00,,,0.00,Wunderground v.1.15,2013-08-03 15:35:00,
2013-08-03 11:45:00,64.1,56.0,30.03,West,279,3.0,3.0,75,0.00,,,0.00,Wunderground v.1.15,2013-08-03 15:45:00,
2013-08-03 11:50:00,64.0,54.8,30.03,West,273,4.0,5.0,72,0.00,,,0.00,Wunderground v.1.15,2013-08-03 15:50:00,
2013-08-03 11:55:00,64.0,55.9,30.03,WSW,257,5.0,5.0,75,0.00,,,0.00,Wunderground v.1.15,2013-08-03 15:55:00,
2013-08-03 12:00:00,64.2,54.2,30.03,WSW,254,5.0,6.0,70,0.00,,,0.00,Wunderground v.1.15,2013-08-03 16:00:00,
2013-08-03 12:05:00,64.1,54.5,30.04,WSW,256,6.0,6.0,71,0.00,,,0.00,Wunderground v.1.15,2013-08-03 16:05:00,
2013-08-03 12:15:00,64.0,54.4,30.04,WSW,256,6.0,6.0,71,0.00,,,0.00,Wunderground v.1.15,2013-08-03 16:15:00,
2013-08-03 12:20:00,64.0,55.9,30.04,West,280,5.0,5.0,75,0.00,,,0.00,Wunderground v.1.15,2013-08-03 16:20:00,
2013-08-03 12:25:00,64.1,56.7,30.04,West,271,5.0,5.0,77,0.00,,,0.00,Wunderground v.1.15,2013-08-03 16:25:00,
2013-08-03 12:30:00,64.1,57.5,30.04,West,264,5.0,5.0,79,0.00,,,0.00,Wunderground v.1.15,2013-08-03 16:30:00,
2013-08-03 12:35:00,64.4,56.7,30.04,WSW,248,5.0,6.0,76,0.00,,,0.00,Wunderground v.1.15,2013-08-03 16:35:00,
2013-08-03 12:40:00,64.4,56.3,30.04,West,275,5.0,5.0,75,0.00,,,0.00,Wunderground v.1.15,2013-08-03 16:40:00,
2013-08-03 12:50:00,64.2,56.1,30.05,West,271,5.0,5.0,75,0.00,,,0.00,Wunderground v.1.15,2013-08-03 16:50:00,
2013-08-03 12:55:00,64.1,55.6,30.05,West,276,5.0,5.0,74,0.00,,,0.00,Wunderground v.1.15,2013-08-03 16:55:00,
2013-08-03 13:00:00,64.0,55.5,30.05,West,275,5.0,5.0,74,0.00,,,0.00,Wunderground v.1.15,2013-08-03 17:00:00,
2013-08-03 13:05:00,64.0,56.6,30.05,West,261,5.0,5.0,77,0.00,,,0.00,Wunderground v.1.15,2013-08-03 17:05:00,
2013-08-03 13:10:00,63.9,56.2,30.05,WSW,257,5.0,8.0,76,0.00,,,0.00,Wunderground v.1.15,2013-08-03 17:10:00,
2013-08-03 13:20:00,63.9,56.2,30.06,West,274,5.0,6.0,76,0.00,,,0.00,Wunderground v.1.15,2013-08-03 17:20:00,
2013-08-03 13:25:00,63.7,55.6,30.06,WSW,254,6.0,7.0,75,0.00,,,0.00,Wunderground v.1.15,2013-08-03 17:25:00,
2013-08-03 13:30:00,63.8,56.8,30.06,West,265,6.0,6.0,78,0.00,,,0.00,Wunderground v.1.15,2013-08-03 17:30:00,
2013-08-03 13:35:00,63.8,56.1,30.06,WSW,258,6.0,6.0,76,0.00,,,0.00,Wunderground v.1.15,2013-08-03 17:35:00,
2013-08-03 13:40:00,63.9,57.6,30.06,West,271,4.0,4.0,80,0.00,,,0.00,Wunderground v.1.15,2013-08-03 17:40:00,
2013-08-03 13:45:00,64.1,55.3,30.06,West,262,4.0,4.0,73,0.00,,,0.00,Wunderground v.1.15,2013-08-03 17:45:00,
2013-08-03 13:55:00,64.5,56.4,30.06,WSW,257,5.0,5.0,75,0.00,,,0.00,Wunderground v.1.15,2013-08-03 17:55:00,
2013-08-03 14:00:00,64.5,56.8,30.06,WSW,253,5.0,6.0,76,0.00,,,0.00,Wunderground v.1.15,2013-08-03 18:00:00,
2013-08-03 14:05:00,64.5,57.1,30.06,WSW,257,5.0,7.0,77,0.00,,,0.00,Wunderground v.1.15,2013-08-03 18:05:00,
2013-08-03 14:10:00,64.5,56.8,30.06,WSW,253,6.0,6.0,76,0.00,,,0.00,Wunderground v.1.15,2013-08-03 18:10:00,
2013-08-03 14:15:00,64.4,57.0,30.06,West,260,6.0,6.0,77,0.00,,,0.00,Wunderground v.1.15,2013-08-03 18:15:00,
2013-08-03 14:25:00,64.4,57.4,30.06,West,273,4.0,5.0,78,0.00,,,0.00,Wunderground v.1.15,2013-08-03 18:25:00,
2013-08-03 14:30:00,64.4,57.0,30.07,WSW,250,4.0,5.0,77,0.00,,,0.00,Wunderground v.1.15,2013-08-03 18:30:00,
2013-08-03 14:35:00,64.4,57.0,30.07,WSW,256,5.0,6.0,77,0.00,,,0.00,Wunderground v.1.15,2013-08-03 18:35:00,
2013-08-03 14:40:00,64.6,57.2,30.06,West,261,5.0,6.0,77,0.00,,,0.00,Wunderground v.1.15,2013-08-03 18:40:00,
2013-08-03 14:45:00,64.6,57.6,30.07,WNW,296,5.0,6.0,78,0.00,,,0.00,Wunderground v.1.15,2013-08-03 18:45:00,
2013-08-03 14:50:00,64.8,57.8,30.07,West,278,4.0,5.0,78,0.00,,,0.00,Wunderground v.1.15,2013-08-03 18:50:00,
2013-08-03 15:00:00,65.0,58.0,30.06,West,260,4.0,4.0,78,0.00,,,0.00,Wunderground v.1.15,2013-08-03 19:00:00,
2013-08-03 15:05:00,64.8,57.1,30.07,West,266,3.0,4.0,76,0.00,,,0.00,Wunderground v.1.15,2013-08-03 19:05:00,
2013-08-03 15:10:00,64.9,57.2,30.07,West,271,3.0,3.0,76,0.00,,,0.00,Wunderground v.1.15,2013-08-03 19:10:00,
2013-08-03 15:15:00,64.6,57.2,30.06,WSW,253,3.0,3.0,77,0.00,,,0.00,Wunderground v.1.15,2013-08-03 19:15:00,
2013-08-03 15:20:00,64.6,56.5,30.07,West,263,3.0,3.0,75,0.00,,,0.00,Wunderground v.1.15,2013-08-03 19:20:00,
2013-08-03 15:30:00,64.9,56.4,30.07,WSW,256,2.0,4.0,74,0.00,,,0.00,Wunderground v.1.15,2013-08-03 19:30:00,
2013-08-03 15:35:00,64.9,56.4,30.07,WSW,252,3.0,4.0,74,0.00,,,0.00,Wunderground v.1.15,2013-08-03 19:35:00,
2013-08-03 15:40:00,64.8,57.1,30.07,WSW,255,2.0,2.0,76,0.00,,,0.00,Wunderground v.1.15,2013-08-03 19:40:00,
2013-08-03 15:45:00,64.7,57.0,30.06,WSW,256,2.0,2.0,76,0.00,,,0.00,Wunderground v.1.15,2013-08-03 19:45:00,
2013-08-03 15:50:00,64.7,56.2,30.06,WSW,256,2.0,2.0,74,0.00,,,0.00,Wunderground v.1.15,2013-08-03 19:50:00,
2013-08-03 15:55:00,64.9,56.4,30.06,WSW,257,1.0,2.0,74,0.00,,,0.00,Wunderground v.1.15,2013-08-03 19:55:00,
2013-08-03 16:05:00,65.0,56.9,30.06,WSW,257,1.0,2.0,75,0.00,,,0.00,Wunderground v.1.15,2013-08-03 20:05:00,
2013-08-03 16:10:00,65.4,56.9,30.06,WSW,256,1.0,4.0,74,0.00,,,0.00,Wunderground v.1.15,2013-08-03 20:10:00,
2013-08-03 16:15:00,65.3,56.8,30.06,WSW,257,1.0,4.0,74,0.00,,,0.00,Wunderground v.1.15,2013-08-03 20:15:00,
2013-08-03 16:20:00,65.1,56.6,30.06,WSW,257,1.0,2.0,74,0.00,,,0.00,Wunderground v.1.15,2013-08-03 20:20:00,
2013-08-03 16:25:00,65.0,56.5,30.06,WSW,256,1.0,2.0,74,0.00,,,0.00,Wunderground v.1.15,2013-08-03 20:25:00,
2013-08-03 16:35:00,65.7,56.8,30.06,WSW,257,1.0,2.0,73,0.00,,,0.00,Wunderground v.1.15,2013-08-03 20:35:00,
2013-08-03 16:40:00,65.9,57.4,30.06,WSW,257,1.0,1.0,74,0.00,,,0.00,Wunderground v.1.15,2013-08-03 20:40:00,
2013-08-03 16:45:00,66.1,56.8,30.06,WSW,256,1.0,2.0,72,0.00,,,0.00,Wunderground v.1.15,2013-08-03 20:45:00,
2013-08-03 16:50:00,66.0,57.8,30.06,WSW,257,1.0,2.0,75,0.00,,,0.00,Wunderground v.1.15,2013-08-03 20:50:00,
2013-08-03 16:55:00,66.2,57.7,30.06,WSW,257,1.0,2.0,74,0.00,,,0.00,Wunderground v.1.15,2013-08-03 20:55:00,
2013-08-03 17:00:00,66.4,56.7,30.06,WSW,254,2.0,2.0,71,0.00,,,0.00,Wunderground v.1.15,2013-08-03 21:00:00,
2013-08-03 17:10:00,65.7,56.8,30.06,WSW,254,2.0,3.0,73,0.00,,,0.00,Wunderground v.1.15,2013-08-03 21:10:00,
2013-08-03 17:15:00,65.7,56.8,30.06,WSW,254,2.0,3.0,73,0.00,,,0.00,Wunderground v.1.15,2013-08-03 21:15:00,
2013-08-03 17:20:00,65.2,55.9,30.06,WSW,254,2.0,2.0,72,0.00,,,0.00,Wunderground v.1.15,2013-08-03 21:20:00,
2013-08-03 17:25:00,65.3,56.0,30.06,WSW,254,1.0,2.0,72,0.00,,,0.00,Wunderground v.1.15,2013-08-03 21:25:00,
2013-08-03 17:30:00,65.5,57.0,30.06,WSW,254,1.0,2.0,74,0.00,,,0.00,Wunderground v.1.15,2013-08-03 21:30:00,
2013-08-03 17:40:00,66.4,58.2,30.06,WSW,254,1.0,1.0,75,0.00,,,0.00,Wunderground v.1.15,2013-08-03 21:40:00,
2013-08-03 17:45:00,66.4,56.7,30.06,WSW,254,1.0,2.0,71,0.00,,,0.00,Wunderground v.1.15,2013-08-03 21:45:00,
2013-08-03 17:50:00,66.1,57.2,30.06,WSW,248,1.0,2.0,73,0.00,,,0.00,Wunderground v.1.15,2013-08-03 21:50:00,
2013-08-03 17:55:00,66.0,57.5,30.06,WSW,248,2.0,2.0,74,0.00,,,0.00,Wunderground v.1.15,2013-08-03 21:55:00,
2013-08-03 18:00:00,65.8,56.5,30.06,WSW,249,2.0,2.0,72,0.00,,,0.00,Wunderground v.1.15,2013-08-03 22:00:00,
2013-08-03 18:05:00,65.8,56.9,30.06,WSW,245,2.0,2.0,73,0.00,,,0.00,Wunderground v.1.15,2013-08-03 22:05:00,
2013-08-03 18:15:00,65.9,57.0,30.06,WSW,249,1.0,2.0,73,0.00,,,0.00,Wunderground v.1.15,2013-08-03 22:15:00,
2013-08-03 18:20:00,66.0,57.5,30.06,WSW,249,1.0,1.0,74,0.00,,,0.00,Wunderground v.1.15,2013-08-03 22:20:00,
2013-08-03 18:25:00,66.0,57.1,30.06,WSW,251,1.0,3.0,73,0.00,,,0.00,Wunderground v.1.15,2013-08-03 22:25:00,
2013-08-03 18:30:00,65.7,56.8,30.06,WSW,254,2.0,5.0,73,0.00,,,0.00,Wunderground v.1.15,2013-08-03 22:30:00,
2013-08-03 18:35:00,65.9,57.0,30.06,WSW,253,2.0,5.0,73,0.00,,,0.00,Wunderground v.1.15,2013-08-03 22:35:00,
2013-08-03 18:45:00,66.6,57.3,30.06,WSW,250,2.0,2.0,72,0.00,,,0.00,Wunderground v.1.15,2013-08-03 22:45:00,
2013-08-03 18:50:00,66.6,56.5,30.06,WSW,251,2.0,2.0,70,0.00,,,0.00,Wunderground v.1.15,2013-08-03 22:50:00,
2013-08-03 18:55:00,66.7,56.2,30.06,WSW,248,2.0,2.0,69,0.00,,,0.00,Wunderground v.1.15,2013-08-03 22:55:00,
2013-08-03 19:00:00,66.7,56.2,30.06,WSW,253,2.0,2.0,69,0.00,,,0.00,Wunderground v.1.15,2013-08-03 23:00:00,
2013-08-03 19:05:00,65.9,56.2,30.06,WSW,253,2.0,2.0,71,0.00,,,0.00,Wunderground v.1.15,2013-08-03 23:05:00,
2013-08-03 19:10:00,65.4,56.5,30.06,WSW,253,2.0,2.0,73,0.00,,,0.00,Wunderground v.1.15,2013-08-03 23:10:00,
2013-08-03 19:20:00,65.7,56.8,30.06,WSW,250,2.0,2.0,73,0.00,,,0.00,Wunderground v.1.15,2013-08-03 23:20:00,
2013-08-03 19:25:00,66.2,57.7,30.06,WSW,248,2.0,4.0,74,0.00,,,0.00,Wunderground v.1.15,2013-08-03 23:25:00,
2013-08-03 19:30:00,66.4,57.1,30.06,WSW,250,2.0,2.0,72,0.00,,,0.00,Wunderground v.1.15,2013-08-03 23:30:00,
2013-08-03 19:40:00,65.6,56.3,30.06,West,259,3.0,3.0,72,0.00,,,0.00,Wunderground v.1.15,2013-08-03 23:40:00,
2013-08-03 19:50:00,65.0,56.5,30.06,WSW,257,1.0,1.0,74,0.00,,,0.00,Wunderground v.1.15,2013-08-03 23:50:00,
2013-08-03 19:55:00,64.9,57.2,30.06,WSW,257,2.0,2.0,76,0.00,,,0.00,Wunderground v.1.15,2013-08-03 23:55:00,
2013-08-03 20:00:00,64.8,57.4,30.06,WSW,254,1.0,2.0,77,0.00,,,0.00,Wunderground v.1.15,2013-08-04 00:00:00,
2013-08-03 20:05:00,64.7,57.3,30.06,WSW,250,2.0,5.0,77,0.00,,,0.00,Wunderground v.1.15,2013-08-04 00:05:00,
2013-08-03 20:10:00,64.6,57.2,30.06,West,259,2.0,2.0,77,0.00,,,0.00,Wunderground v.1.15,2013-08-04 00:10:00,
2013-08-03 20:20:00,64.8,57.8,30.06,West,264,2.0,3.0,78,0.00,,,0.00,Wunderground v.1.15,2013-08-04 00:20:00,
2013-08-03 20:25:00,64.8,57.8,30.06,WSW,250,2.0,5.0,78,0.00,,,0.00,Wunderground v.1.15,2013-08-04 00:25:00,
2013-08-03 20:30:00,64.8,57.8,30.07,West,271,2.0,2.0,78,0.00,,,0.00,Wunderground v.1.15,2013-08-04 00:30:00,
2013-08-03 20:35:00,64.8,58.5,30.06,West,269,2.0,4.0,80,0.00,,,0.00,Wunderground v.1.15,2013-08-04 00:35:00,
2013-08-03 20:40:00,64.8,58.5,30.07,West,263,3.0,5.0,80,0.00,,,0.00,Wunderground v.1.15,2013-08-04 00:40:00,
2013-08-03 20:50:00,65.1,57.7,30.07,WNW,292,5.0,5.0,77,0.00,,,0.00,Wunderground v.1.15,2013-08-04 00:50:00,
2013-08-03 20:55:00,65.0,56.1,30.07,NW,310,5.0,6.0,73,0.00,,,0.00,Wunderground v.1.15,2013-08-04 00:55:00,
2013-08-03 21:00:00,65.0,57.6,30.07,WNW,286,5.0,5.0,77,0.00,,,0.00,Wunderground v.1.15,2013-08-04 01:00:00,
2013-08-03 21:05:00,64.9,56.0,30.07,NW,313,4.0,5.0,73,0.00,,,0.00,Wunderground v.1.15,2013-08-04 01:05:00,
2013-08-03 21:10:00,64.7,55.8,30.07,WNW,302,3.0,3.0,73,0.00,,,0.00,Wunderground v.1.15,2013-08-04 01:10:00,
2013-08-03 21:15:00,64.5,55.7,30.07,NW,307,2.0,3.0,73,0.00,,,0.00,Wunderground v.1.15,2013-08-04 01:15:00,
2013-08-03 21:20:00,64.3,54.3,30.07,NW,316,2.0,2.0,70,0.00,,,0.00,Wunderground v.1.15,2013-08-04 01:20:00,
2013-08-03 21:30:00,64.1,54.5,30.08,NW,306,2.0,2.0,71,0.00,,,0.00,Wunderground v.1.15,2013-08-04 01:30:00,
2013-08-03 21:40:00,63.6,54.0,30.08,NNW,330,2.0,2.0,71,0.00,,,0.00,Wunderground v.1.15,2013-08-04 01:40:00,
2013-08-03 21:45:00,63.3,53.7,30.08,NNW,331,2.0,6.0,71,0.00,,,0.00,Wunderground v.1.15,2013-08-04 01:45:00,
2013-08-03 21:50:00,63.0,53.4,30.08,NW,313,2.0,2.0,71,0.00,,,0.00,Wunderground v.1.15,2013-08-04 01:50:00,
2013-08-03 22:00:00,62.5,53.3,30.09,NNE,13,1.0,1.0,72,0.00,,,0.00,Wunderground v.1.15,2013-08-04 02:00:00,
2013-08-03 22:05:00,62.2,53.4,30.09,North,349,0.0,2.0,73,0.00,,,0.00,Wunderground v.1.15,2013-08-04 02:05:00,
2013-08-03 22:10:00,61.9,53.1,30.09,NW,315,0.0,2.0,73,0.00,,,0.00,Wunderground v.1.15,2013-08-04 02:10:00,
2013-08-03 22:15:00,61.6,53.2,30.09,NW,317,1.0,2.0,74,0.00,,,0.00,Wunderground v.1.15,2013-08-04 02:15:00,
2013-08-03 22:20:00,61.4,52.7,30.09,NNW,342,1.0,1.0,73,0.00,,,0.00,Wunderground v.1.15,2013-08-04 02:20:00,
2013-08-03 22:25:00,61.3,52.9,30.09,NNE,13,1.0,2.0,74,0.00,,,0.00,Wunderground v.1.15,2013-08-04 02:25:00,
2013-08-03 22:35:00,61.0,52.7,30.10,NW,310,1.0,4.0,74,0.00,,,0.00,Wunderground v.1.15,2013-08-04 02:35:00,
2013-08-03 22:45:00,60.8,52.8,30.10,NW,313,1.0,4.0,75,0.00,,,0.00,Wunderground v.1.15,2013-08-04 02:45:00,
2013-08-03 22:50:00,60.7,52.7,30.10,NW,325,1.0,1.0,75,0.00,,,0.00,Wunderground v.1.15,2013-08-04 02:50:00,
2013-08-03 22:55:00,60.7,53.1,30.10,NW,319,2.0,2.0,76,0.00,,,0.00,Wunderground v.1.15,2013-08-04 02:55:00,
2013-08-03 23:05:00,60.6,53.3,30.10,NNW,338,1.0,4.0,77,0.00,,,0.00,Wunderground v.1.15,2013-08-04 03:05:00,
2013-08-03 23:10:00,60.6,53.3,30.10,NNW,331,1.0,1.0,77,0.00,,,0.00,Wunderground v.1.15,2013-08-04 03:10:00,
2013-08-03 23:15:00,60.7,53.4,30.10,NW,325,1.0,2.0,77,0.00,,,0.00,Wunderground v.1.15,2013-08-04 03:15:00,
2013-08-03 23:20:00,60.7,53.4,30.10,NW,311,1.0,1.0,77,0.00,,,0.00,Wunderground v.1.15,2013-08-04 03:20:00,
2013-08-03 23:25:00,60.7,53.4,30.10,NW,326,1.0,2.0,77,0.00,,,0.00,Wunderground v.1.15,2013-08-04 03:25:00,
2013-08-03 23:30:00,60.8,53.5,30.10,North,351,1.0,1.0,77,0.00,,,0.00,Wunderground v.1.15,2013-08-04 03:30:00,
2013-08-03 23:40:00,60.8,53.5,30.10,NNW,331,1.0,2.0,77,0.00,,,0.00,Wunderground v.1.15,2013-08-04 03:40:00,
2013-08-03 23:45:00,60.7,53.1,30.10,NW,315,1.0,2.0,76,0.00,,,0.00,Wunderground v.1.15,2013-08-04 03:45:00,
2013-08-03 23:50:00,60.6,53.3,30.10,NNW,331,1.0,1.0,77,0.00,,,0.00,Wunderground v.1.15,2013-08-04 03:50:00,
2013-08-03 23:55:00,60.5,52.9,30.10,NNW,331,1.0,2.0,76,0.00,,,0.00,Wunderground v.1.15,2013-08-04 03:55:00,